Wind_Gust
0 0 0 0 0 0 0 0 0 0 0 0 0 0 0 0 0 0 0 0 0 0 0 0 0 0 0 0 0 0 0 0 0 0 0 0 0 0 0 0 0 0 0 0 0 0 0 0 0 0 0 0 0 0 0 0 0 0 0 0 0 0 0 0 0 0 0 0 0 0 0 0 0 0 0 0 0 0 0 0 0 0 0 0 0 0
0 0 0 0 0 0 0 0 0 0 0 0 0 0 0 0 0 0 0 0 0 0 0 0 0 0 0 0 0 0 0 0 0 0 0 0 0 0 0 0 0 0 0 0 0 0 0 0 0 0 0 0 0 0 0 0 0 0 0 0 0 0 0 0 0 0 0 0 0 0 0 0 0 0 0 0 0 0 0 0 0 0 0 0 0 0
0 0 0 0 0 0 0 0 0 0 0 0 0 0 0 0 0 0 0 0 0 0 0 0 0 0 0 0 0 0 0 0 0 0 0 0 0 0 0 0 0 0 0 0 0 0 0 0 0 0 0 0 0 0 0 0 0 0 0 0 0 0 0 0 0 0 0 0 0 0 0 0 0 0 0 0 0 0 0 0 0 0 0 0 0 0
0 0 0 0 0 0 0 0 0 0 0 0 0 0 0 0 0 0 0 0 0 0 0 0 0 0 0 0 0 0 0 0 0 0 0 0 0 0 0 0 0 0 0 0 0 0 0 0 0 0 0 0 0 0 0 0 0 0 0 0 0 0 0 0 0 0 0 0 0 0 0 0 0 0 0 0 0 0 0 0 0 0 0 0 0 0
0 0 0 0 0 0 0 0 0 0 0 0 0 0 0 0 0 0 0 0 0 0 0 0 0 0 0 0 0 0 0 0 0 0 0 0 0 0 0 0 0 0 0 0 0 0 0 0 0 0 0 0 0 0 0 0 0 0 0 0 0 0 0 0 0 0 0 0 0 0 0 0 0 0 0 0 0 0 0 0 0 0 0 0 0 0
0 0 0 0 0 0 0 0 0 0 0 0 0 0 0 0 0 0 0 0 0 0 0 0 0 0 0 0 0 0 0 0 0 0 0 0 0 0 0 0 0 0 0 0 0 0 0 0 0 0 0 0 0 0 0 0 0 0 0 0 0 0 0 0 0 0 0 0 0 0 0 0 0 0 0 0 0 0 0 0 0 0 0 0 0 0
0 0 0 0 0 0 0 0 0 0 0 0 0 0 0 0 0 0 0 0 0 0 0 0 0 0 0 0 0 0 0 0 0 0 0 0 0 0 0 0 0 0 0 0 0 0 0 0 0 0 0 0 0 0 0 0 0 0 0 0 0 0 0 0 0 0 0 0 0 0 0 0 0 0 0 0 0 0 0 0 0 0 0 0 0 0
0 0 0 0 0 0 0 0 0 0 0 0 0 0 0 0 0 0 0 0 0 0 0 0 0 0 0 0 0 0 0 0 0 0 0 0 0 0 0 0 0 0 0 0 0 0 0 0 0 0 0 0 0 0 0 0 0 0 0 0 0 0 0 0 0 0 0 0 0 0 0 0 0 0 0 0 0 0 0 0 0 0 0 0 0 0
0 0 0 0 0 0 0 0 0 0 0 0 0 0 0 0 0 0 0 0 0 0 0 0 0 0 0 0 0 0 0 0 0 0 0 0 0 0 0 0 0 0 0 0 0 0 0 0 0 0 0 0 0 0 0 0 0 0 0 0 0 0 0 0 0 0 0 0 0 0 0 0 0 0 0 0 0 0 0 0 0 0 0 0 0 0
0 0 0 0 0 0 0 0 0 0 0 0 0 0 0 0 0 0 0 0 0 0 0 0 0 0 0 0 0 0 0 0 0 0 0 0 0 0 0 0 0 0 0 0 0 0 0 0 0 0 0 0 0 0 0 0 0 0 0 0 0 0 0 0 0 0 0 0 0 0 0 0 0 0 0 0 0 0 0 0 0 0 0 0 0 0
0 0 0 0 0 0 0 0 0 0 0 0 0 0 0 0 0 0 0 0 0 0 0 0 0 0 0 0 0 0 0 0 0 0 0 0 0 0 0 0 0 0 0 0 0 0 0 0 0 0 0 0 0 0 0 0 0 0 0 0 0 0 0 0 0 0 0 0 0 0 0 0 0 0 0 0 0 0 0 0 0 0 0 0 0 0
0 0 0 0 0 0 0 0 0 0 0 0 0 0 0 0 0 0 0 0 0 0 0 0 0 0 0 0 0 0 0 0 0 0 0 0 0 0 0 0 0 0 0 0 0 0 0 0 0 0 0 0 0 0 0 0 0 0 0 0 0 0 0 0 0 0 0 0 0 0 0 0 0 0 0 0 0 0 0 0 0 0 0 0 0 0
0 0 0 0 0 0 0 0 0 0 0 0 0 0 0 0 0 0 0 0 0 0 0 0 0 0 0 0 0 0 0 0 0 0 0 0 0 0 0 0 0 0 0 0 0 0 0 0 0 0 0 0 0 0 0 0 0 0 0 0 0 0 0 0 0 0 0 0 0 0 0 0 0 0 0 0 0 0 0 0 0 0 0 0 0 0
0 0 0 0 0 0 0 0 0 0 0 0 0 0 0 0 0 0 0 0 0 0 0 0 0 0 0 0 0 0 0 0 0 0 0 0 0 0 0 0 0 0 0 0 0 0 0 0 0 0 0 0 0 0 0 0 0 0 0 0 0 0 0 0 0 0 0 0 0 0 0 0 0 0 0 0 0 0 0 0 0 0 0 0 0 0
0 0 0 0 0 0 0 0 0 0 0 0 0 0 0 0 0 0 0 0 0 0 0 0 0 0 0 0 0 0 0 0 0 0 0 0 0 0 0 0 0 0 0 0 0 0 0 0 0 0 0 0 0 0 0 0 0 0 0 0 0 0 0 0 0 0 0 0 0 0 0 0 0 0 0 0 0 0 0 0 0 0 0 0 0 0
0 0 0 0 0 0 0 0 0 0 0 0 0 0 0 0 0 0 0 0 0 0 0 0 0 0 0 0 0 0 0 0 0 0 0 0 0 0 0 0 0 0 0 0 0 0 0 0 0 0 0 0 0 0 0 0 0 0 0 0 0 0 0 0 0 0 0 0 0 0 0 0 0 0 0 0 0 0 0 0 0 0 0 0 0 0
0 0 0 0 0 0 0 0 0 0 0 0 0 0 0 0 0 0 0 0 0 0 0 0 0 0 0 0 0 0 0 0 0 0 0 0 0 0 0 0 0 0 0 0 0 0 0 0 0 0 0 0 0 0 0 0 0 0 0 0 0 0 0 0 0 0 0 0 0 0 0 0 0 0 0 0 0 0 0 0 0 0 0 0 0 0
0 0 0 0 0 0 0 0 0 0 0 0 0 0 0 0 0 0 0 0 0 0 0 0 0 0 0 0 0 0 0 0 0 0 0 0 0 0 0 0 0 0 0 0 0 0 0 0 0 0 0 0 0 0 0 0 0 0 0 0 0 0 0 0 0 0 0 0 0 0 0 0 0 0 0 0 0 0 0 0 0 0 0 0 0 0
0 0 0 0 0 0 0 0 0 0 0 0 0 0 0 0 0 0 0 0 0 0 0 0 0 0 0 0 0 0 0 0 0 0 0 0 0 0 0 0 0 0 0 0 0 0 0 0 0 0 0 0 0 0 0 0 0 0 0 0 0 0 0 0 0 0 0 0 0 0 0 0 0 0 0 0 0 0 0 0 0 0 0 0 0 0
0 0 0 0 0 0 0 0 0 0 0 0 0 0 0 0 0 0 0 0 0 0 0 0 0 0 0 0 0 0 0 0 0 0 0 0 0 0 0 0 0 0 0 0 0 0 0 0 0 0 0 0 0 0 0 0 0 0 0 0 0 0 0 0 0 0 0 0 0 0 0 0 0 0 0 0 0 0 0 0 0 0 0 0 0 0
0 0 0 0 0 0 0 0 0 0 0 0 0 0 0 0 0 0 0 0 0 0 0 0 0 0 0 0 0 0 0 0 0 0 0 0 0 0 0 0 0 0 0 0 0 0 0 0 0 0 0 0 0 0 0 0 0 0 0 0 0 0 0 0 0 0 0 0 0 0 0 0 0 0 0 0 0 0 0 0 0 0 0 0 0 0
0 0 0 0 0 0 0 0 0 0 0 0 0 0 0 0 0 0 0 0 0 0 0 0 0 0 0 0 0 0 0 0 0 0 0 0 0 0 0 0 0 0 0 0 0 0 0 0 0 0 0 0 0 0 0 0 0 0 0 0 0 0 0 0 0 0 0 0 0 0 0 0 0 0 0 0 0 0 0 0 0 0 0 0 0 0
0 0 0 0 0 0 0 0 0 0 0 0 0 0 0 0 0 0 0 0 0 0 0 0 0 0 0 0 0 0 0 0 0 0 0 0 0 0 0 0 0 0 0 0 0 0 0 0 0 0 0 0 0 0 0 0 0 0 0 0 0 0 0 0 0 0 0 0 0 0 0 0 0 0 0 0 0 0 0 0 0 0 0 0 0 0
0 0 0 0 0 0 0 0 0 0 0 0 0 0 0 0 0 0 0 0 0 0 0 0 0 0 0 0 0 0 0 0 0 0 0 0 0 0 0 0 0 0 0 0 0 0 0 0 0 0 0 0 0 0 0 0 0 0 0 0 0 0 0 0 0 0 0 0 0 0 0 0 0 0 0 0 0 0 0 0 0 0 0 0 0 0
0 0 0 0 0 0 0 0 0 0 0 0 0 0 0 0 0 0 0 0 0 0 0 0 0 0 0 0 0 0 0 0 0 0 0 0 0 0 0 0 0 0 0 0 0 0 0 0 0 0 0 0 0 0 0 0 0 0 0 0 0 0 0 0 0 0 0 0 0 0 0 0 0 0 0 0 0 0 0 0 0 0 0 0 0 0
0 0 0 0 0 0 0 0 0 0 0 0 0 0 0 0 0 0 0 0 0 0 0 0 0 0 0 0 0 0 0 0 0 0 0 0 0 0 0 0 0 0 0 0 0 0 0 0 0 0 0 0 0 0 0 0 0 0 0 0 0 0 0 0 0 0 0 0 0 0 0 0 0 0 0 0 0 0 0 0 0 0 0 0 0 0
0 0 0 0 0 0 0 0 0 0 0 0 0 0 0 0 0 0 0 0 0 0 0 0 0 0 0 0 0 0 0 0 0 0 0 0 0 0 0 0 0 0 0 0 0 0 0 0 0 0 0 0 0 0 0 0 0 0 0 0 0 0 0 0 0 0 0 0 0 0 0 0 0 0 0 0 0 0 0 0 0 0 0 0 0 0
0 0 0 0 0 0 0 0 0 0 0 0 0 0 0 0 0 0 0 0 0 0 0 0 0 0 0 0 0 0 0 0 0 0 0 0 0 0 0 0 0 0 0 0 0 0 0 0 0 0 0 0 0 0 0 0 0 0 0 0 0 0 0 0 0 0 0 0 0 0 0 0 0 0 0 0 0 0 0 0 0 0 0 0 0 0
0 0 0 0 0 0 0 0 0 0 0 0 0 0 0 0 0 0 0 0 0 0 0 0 0 0 0 0 0 0 0 0 0 0 0 0 0 0 0 0 0 0 0 0 0 0 0 0 0 0 0 0 0 0 0 0 0 0 0 0 0 0 0 0 0 0 0 0 0 0 0 0 0 0 0 0 0 0 0 0 0 0 0 0 0 0
0 0 0 0 0 0 0 0 0 0 0 0 0 0 0 0 0 0 0 0 0 0 0 0 0 0 0 0 0 0 0 0 0 0 0 0 0 0 0 0 0 0 0 0 0 0 0 0 0 0 0 0 0 0 0 0 0 0 0 0 0 0 0 0 0 0 0 0 0 0 0 0 0 0 0 0 0 0 0 0 0 0 0 0 0 0
0 0 0 0 0 0 0 0 0 0 0 0 0 0 0 0 0 0 0 0 0 0 0 0 0 0 0 0 0 0 0 0 0 0 0 0 0 0 0 0 0 0 0 0 0 0 0 0 0 0 0 0 0 0 0 0 0 0 0 0 0 0 0 0 0 0 0 0 0 0 0 0 0 0 0 0 0 0 0 0 0 0 0 0 0 0
0 0 0 0 0 0 0 0 0 0 0 0 0 0 0 0 0 0 0 0 0 0 0 0 0 0 0 0 0 0 0 0 0 0 0 0 0 0 0 0 0 0 0 0 0 0 0 0 0 0 0 0 0 0 0 0 0 0 0 0 0 0 0 0 0 0 0 0 0 0 0 0 0 0 0 0 0 0 0 0 0 0 0 0 0 0
0 0 0 0 0 0 0 0 0 0 0 0 0 0 0 0 0 0 0 0 0 0 0 0 0 0 0 0 0 0 0 0 0 0 0 0 0 0 0 0 0 0 0 0 0 0 0 0 0 0 0 0 0 0 0 0 0 0 0 0 0 0 0 0 0 0 0 0 0 0 0 0 0 0 0 0 0 0 0 0 0 0 0 0 0 0
0 0 0 0 0 0 0 0 0 0 0 0 0 0 0 0 0 0 0 0 0 0 0 0 0 0 0 0 0 0 0 0 0 0 0 0 0 0 0 0 0 0 0 0 0 0 0 0 0 0 0 0 0 0 0 0 0 0 0 0 0 0 0 0 0 0 0 0 0 0 0 0 0 0 0 0 0 0 0 0 0 0 0 0 0 0
0 0 0 0 0 0 0 0 0 0 0 0 0 0 0 0 0 0 0 0 0 0 0 0 0 0 0 0 0 0 0 0 0 0 0 0 0 0 0 0 0 0 0 0 0 0 0 0 0 0 0 0 0 0 0 0 0 0 0 0 0 0 0 0 0 0 0 0 0 0 0 0 0 0 0 0 0 0 0 0 0 0 0 0 0 0
0 0 0 0 0 0 0 0 0 0 0 0 0 0 0 0 0 0 0 0 0 0 0 0 0 0 0 0 0 0 0 0 0 0 0 0 0 0 0 0 0 0 0 0 0 0 0 0 0 0 0 0 0 0 0 0 0 0 0 0 0 0 0 0 0 0 0 0 0 0 0 0 0 0 0 0 0 0 0 0 0 0 0 0 0 0
0 0 0 0 0 0 0 0 0 0 0 0 0 0 0 0 0 0 0 0 0 0 0 0 0 0 0 0 0 0 0 0 0 0 0 0 0 0 0 0 0 0 0 0 0 0 0 0 0 0 0 0 0 0 0 0 0 0 0 0 0 0 0 0 0 0 0 0 0 0 0 0 0 0 0 0 0 0 0 0 0 0 0 0 0 0
0 0 0 0 0 0 0 0 0 0 0 0 0 0 0 0 0 0 0 0 0 0 0 0 0 0 0 0 0 0 0 0 0 0 0 0 0 0 0 0 0 0 0 0 0 0 0 0 0 0 0 0 0 0 0 0 0 0 0 0 0 0 0 0 0 0 0 0 0 0 0 0 0 0 0 0 0 0 0 0 0 0 0 0 0 0
0 0 0 0 0 0 0 0 0 0 0 0 0 0 0 0 0 0 0 0 0 0 0 0 0 0 0 0 0 0 0 0 0 0 0 0 0 0 0 0 0 0 0 0 0 0 0 0 0 0 0 0 0 0 0 0 0 0 0 0 0 0 0 0 0 0 0 0 0 0 0 0 0 0 0 0 0 0 0 0 0 0 0 0 0 0
0 0 0 0 0 0 0 0 0 0 0 0 0 0 0 0 0 0 0 0 0 0 0 0 0 0 0 0 0 0 0 0 0 0 0 0 0 0 0 0 0 0 0 0 0 0 0 0 0 0 0 0 0 0 0 0 0 0 0 0 0 0 0 0 0 0 0 0 0 0 0 0 0 0 0 0 0 0 0 0 0 0 0 0 0 0
0 0 0 0 0 0 0 0 0 0 0 0 0 0 0 0 0 0 0 0 0 0 0 0 0 0 0 0 0 0 0 0 0 0 0 0 0 0 0 0 0 0 0 0 0 0 0 0 0 0 0 0 0 0 0 0 0 0 0 0 0 0 0 0 0 0 0 0 0 0 0 0 0 0 0 0 0 0 0 0 0 0 0 0 0 0
0 0 0 0 0 0 0 0 0 0 0 0 0 0 0 0 0 0 0 0 0 0 0 0 0 0 0 0 0 0 0 0 0 0 0 0 0 0 0 0 0 0 0 0 0 0 0 0 0 0 0 0 0 0 0 0 0 0 0 0 0 0 0 0 0 0 0 0 0 0 0 0 0 0 0 0 0 0 0 0 0 0 0 0 0 0
0 0 0 0 0 0 0 0 0 0 0 0 0 0 0 0 0 0 0 0 0 0 0 0 0 0 0 0 0 0 0 0 0 0 0 0 0 0 0 0 0 0 0 0 0 0 0 0 0 0 0 0 0 0 0 0 0 0 0 0 0 0 0 0 0 0 0 0 0 0 0 0 0 0 0 0 0 0 0 0 0 0 0 0 0 0
0 0 0 0 0 0 0 0 0 0 0 0 0 0 0 0 0 0 0 0 0 0 0 0 0 0 0 0 0 0 0 0 0 0 0 0 0 0 0 0 0 0 0 0 0 0 0 0 0 0 0 0 0 0 0 0 0 0 0 0 0 0 0 0 0 0 0 0 0 0 0 0 0 0 0 0 0 0 0 0 0 0 0 0 0 0
0 0 0 0 0 0 0 0 0 0 0 0 0 0 0 0 0 0 0 0 0 0 0 0 0 0 0 0 0 0 0 0 0 0 0 0 0 0 0 0 0 0 0 0 0 0 0 0 0 0 0 0 0 0 0 0 0 0 0 0 0 0 0 0 0 0 0 0 0 0 0 0 0 0 0 0 0 0 0 0 0 0 0 0 0 0
0 0 0 0 0 0 0 0 0 0 0 0 0 0 0 0 0 0 0 0 0 0 0 0 0 0 0 0 0 0 0 0 0 0 0 0 0 0 0 0 0 0 0 0 0 0 0 0 0 0 0 0 0 0 0 0 0 0 0 0 0 0 0 0 0 0 0 0 0 0 0 0 0 0 0 0 0 0 0 0 0 0 0 0 0 0
0 0 0 0 0 0 0 0 0 0 0 0 0 0 0 0 0 0 0 0 0 0 0 0 0 0 0 0 0 0 0 0 0 0 0 0 0 0 0 0 0 0 0 0 0 0 0 0 0 0 0 0 0 0 0 0 0 0 0 0 0 0 0 0 0 0 0 0 0 0 0 0 0 0 0 0 0 0 0 0 0 0 0 0 0 0
0 0 0 0 0 0 0 0 0 0 0 0 0 0 0 0 0 0 0 0 0 0 0 0 0 0 0 0 0 0 0 0 0 0 0 0 0 0 0 0 0 0 0 0 0 0 0 0 0 0 0 0 0 0 0 0 0 0 0 0 0 0 0 0 0 0 0 0 0 0 0 0 0 0 0 0 0 0 0 0 0 0 0 0 0 0
0 0 0 0 0 0 0 0 0 0 0 0 0 0 0 0 0 0 0 0 0 0 0 0 0 0 0 0 0 0 0 0 0 0 0 0 0 0 0 0 0 0 0 0 0 0 0 0 0 0 0 0 0 0 0 0 0 0 0 0 0 0 0 0 0 0 0 0 0 0 0 0 0 0 0 0 0 0 0 0 0 0 0 0 0 0
0 0 0 0 0 0 0 0 0 0 0 0 0 0 0 0 0 0 0 0 0 0 0 0 0 0 0 0 0 0 0 0 0 0 0 0 0 0 0 0 0 0 0 0 0 0 0 0 0 0 0 0 0 0 0 0 0 0 0 0 0 0 0 0 0 0 0 0 0 0 0 0 0 0 0 0 0 0 0 0 0 0 0 0 0 0
0 0 0 0 0 0 0 0 0 0 0 0 0 0 0 0 0 0 0 0 0 0 0 0 0 0 0 0 0 0 0 0 0 0 0 0 0 0 0 0 0 0 0 0 0 0 0 0 0 0 0 0 0 0 0 0 0 0 0 0 0 0 0 0 0 0 0 0 0 0 0 0 0 0 0 0 0 0 0 0 0 0 0 0 0 0
Wind_Speed
1 2 1 3 5 3 2 3 4 4 7 4 4 3 2 2 4 3 3 4 2 1 3 3 3 4 6 8 9 8 3 4 4 7 7 7 4 5 6 7 9 9 12 4 5 5 5 6 6 5 4 4 2 1 2 3 3 2 1 1 1 1 2 3 5 5 4 5 6 3 5 6 5 5 3 3 3 3 3 3 4 4 3 2 3 5
2 5 4 7 6 4 4 4 8 7 5 5 5 1 0 1 3 2 1 3 5 1 1 2 2 7 8 9 11 6 5 8 7 7 7 9 6 5 7 8 9 9 1 0 3 4 4 5 6 5 4 4 4 4 3 4 3 0 0 0 1 2 2 2 2 2 4 2 3 3 6 6 7 7 6 5 2 3 3 3 4 5 4 3 4 5
4 1 4 1 3 7 6 4 5 6 5 3 3 2 1 2 3 8 3 2 2 2 5 2 3 7 9 10 10 7 7 5 5 5 6 5 5 4 5 6 6 3 5 3 5 4 6 6 5 4 5 4 3 1 4 1 1 0 1 1 0 2 3 3 3 2 3 3 3 2 3 4 7 4 5 6 6 4 4 3 4 5 5 4 4 5
1 2 6 4 7 8 4 4 7 6 5 5 3 2 3 1 0 2 1 3 4 2 2 3 5 10 8 6 8 8 4 5 5 5 7 4 5 7 10 11 9 8 7 8 9 10 7 5 4 4 5 5 2 1 1 1 1 0 2 2 1 1 2 3 3 4 3 4 5 4 4 4 5 8 8 7 6 5 3 3 3 3 4 4 4 5
5 3 1 6 2 8 5 1 4 3 1 1 2 3 0 1 2 3 2 4 1 2 1 4 4 8 3 4 6 3 3 2 4 5 1 1 4 4 1 1 6 12 11 9 7 5 4 5 8 9 7 2 4 3 3 3 3 3 4 4 2 2 2 2 4 5 5 6 5 4 6 4 4 4 6 6 6 3 4 3 1 2 2 4 5 4
7 3 4 5 3 4 5 2 3 6 0 3 5 8 6 3 3 1 2 4 5 4 2 2 4 4 5 4 5 7 3 5 3 3 2 2 0 3 5 7 5 5 5 10 12 12 10 9 7 5 6 6 4 4 3 3 3 3 4 3 3 3 2 1 3 3 5 5 6 7 7 9 7 6 2 5 6 8 8 6 4 3 3 4 5 5
2 1 2 5 5 3 2 3 3 5 2 1 5 9 7 4 4 3 1 2 2 1 3 1 2 7 5 6 6 4 6 9 5 2 2 1 1 3 5 5 7 9 7 4 2 1 4 7 6 8 7 8 5 4 3 2 3 4 2 2 3 3 1 1 2 2 3 5 5 6 6 6 7 8 7 2 3 5 7 7 7 5 3 3 4 5
1 1 4 4 4 4 2 2 3 9 6 2 1 5 5 5 5 4 3 3 4 1 3 2 3 2 8 8 3 4 4 6 6 3 2 2 3 4 4 5 6 8 7 7 8 6 7 8 9 11 12 3 3 3 3 3 3 3 2 2 2 2 0 2 2 2 2 3 4 5 6 6 7 6 8 7 5 4 5 7 9 8 6 4 4 5
1 2 2 3 1 3 6 7 5 7 6 3 2 7 7 6 4 5 3 2 0 0 7 2 0 0 4 8 5 1 3 5 5 4 4 3 3 4 5 6 7 8 6 5 5 8 10 11 11 8 2 1 3 3 5 5 4 2 1 2 2 1 2 3 3 3 3 4 5 5 7 8 7 7 8 7 6 6 6 7 7 8 10 7 4 5
3 7 9 9 8 6 7 3 9 10 3 2 6 5 6 5 4 3 3 3 1 2 7 3 2 2 5 6 6 2 0 3 4 6 7 5 5 5 6 7 7 5 4 4 6 7 8 8 3 1 0 1 4 4 4 2 1 1 0 1 1 2 3 4 3 3 3 4 5 5 5 8 10 7 8 6 8 8 6 7 6 6 7 9 7 5
3 4 6 5 6 7 4 1 5 8 2 5 4 6 5 7 4 3 5 2 2 1 8 5 4 2 3 5 7 2 1 4 1 4 5 3 4 6 7 7 5 5 6 6 8 8 10 3 2 1 4 5 3 4 3 3 1 0 0 0 1 4 4 3 3 3 4 4 4 5 5 7 9 9 8 9 8 8 7 7 8 6 6 7 9 8
3 1 1 3 4 3 5 3 3 1 2 7 2 2 3 2 4 2 4 3 1 4 6 3 4 3 3 6 5 6 4 3 4 4 6 7 4 7 7 6 6 6 7 7 5 9 8 5 5 4 6 6 6 4 5 4 2 2 1 0 2 5 4 3 4 4 5 4 4 4 6 8 8 8 8 9 10 9 10 9 9 7 5 6 7 8
2 6 2 4 3 10 2 3 2 2 1 2 4 5 3 3 3 2 1 1 3 6 2 1 3 1 6 8 7 5 7 8 7 8 8 6 7 6 5 6 6 4 4 5 7 7 5 7 8 7 9 5 7 8 6 6 4 3 2 1 3 8 3 3 3 5 6 5 5 5 6 7 8 7 7 9 10 10 9 9 10 8 8 7 7 6
6 2 2 3 3 4 7 6 3 0 3 5 5 5 3 0 1 2 5 1 3 5 2 1 1 2 5 8 7 10 10 6 4 7 7 6 7 6 6 4 3 4 6 7 6 6 7 8 9 9 8 8 7 7 7 5 4 4 3 1 3 8 3 3 4 5 6 6 7 6 6 7 7 8 9 8 9 9 8 8 10 10 9 8 8 8
3 8 5 6 4 5 9 11 13 9 10 11 3 10 8 7 5 2 4 3 4 5 1 2 1 5 2 4 6 10 6 6 5 5 5 6 5 4 4 5 5 5 5 6 6 8 9 10 9 8 6 6 7 7 6 5 5 4 3 3 5 6 4 4 5 4 6 7 6 6 6 6 6 7 7 9 9 9 9 8 9 10 9 9 9 8
7 6 7 7 2 7 11 7 6 6 4 0 3 5 5 9 6 4 3 5 2 1 1 1 4 5 7 3 5 5 6 1 3 0 2 0 1 2 4 5 6 5 6 4 6 8 9 9 6 6 7 8 8 7 5 6 5 4 5 4 5 6 5 4 4 4 5 6 6 5 6 6 7 7 7 8 8 8 8 9 9 10 9 8 8 8
0 3 2 5 4 10 12 6 5 6 5 4 5 6 9 3 7 3 1 1 5 3 6 1 5 6 6 5 2 3 1 1 2 1 1 1 1 1 3 5 6 7 6 6 7 8 10 7 7 9 9 8 7 7 9 8 7 7 5 4 5 5 4 4 5 5 5 6 5 5 6 6 6 7 8 8 10 10 9 10 10 10 9 9 9 9
5 7 2 3 4 6 1 1 2 2 6 6 3 8 2 3 4 5 3 1 2 2 7 1 7 4 3 6 2 6 0 4 2 4 1 3 2 3 5 5 6 7 7 6 7 8 9 8 9 8 8 9 9 9 7 8 6 5 5 4 5 5 5 4 3 4 5 5 5 5 6 6 7 7 8 8 9 9 10 9 10 10 11 10 9 8
4 7 7 7 7 2 1 6 1 1 2 7 8 6 7 2 2 1 3 1 1 2 4 3 3 3 4 7 1 4 5 6 5 4 1 3 3 5 5 7 8 6 5 7 9 9 10 10 11 11 11 7 5 6 7 5 4 3 4 4 4 6 5 3 3 3 4 4 5 5 6 6 7 6 7 8 8 9 10 12 11 11 11 11 11 11
0 4 6 2 1 1 1 4 5 5 2 3 4 4 1 3 3 4 7 4 5 4 1 7 1 7 7 7 8 8 9 8 6 3 4 6 6 6 6 6 7 7 7 8 8 9 10 10 11 11 10 9 9 8 6 5 3 5 5 3 4 4 4 3 4 4 4 4 5 5 5 6 7 8 8 9 9 10 11 12 11 11 11 11 11 10
3 2 6 3 3 1 2 3 7 10 7 1 2 3 0 0 2 5 1 4 5 5 4 2 5 6 7 7 8 9 9 10 9 8 6 7 7 8 8 8 8 7 7 8 8 9 10 11 11 10 8 7 4 4 5 6 7 5 3 3 3 5 5 4 4 3 5 4 5 6 7 7 7 8 8 10 10 11 11 11 12 10 10 11 11 11
1 1 9 5 1 6 8 5 8 11 15 14 13 11 12 7 3 4 8 1 0 3 4 4 10 6 8 3 10 8 8 8 9 9 8 8 9 9 9 8 6 6 8 8 9 8 9 9 10 8 4 4 4 6 8 6 4 4 5 3 2 3 5 4 5 4 5 4 5 6 7 8 8 8 9 10 11 11 11 10 11 11 11 11 11 10
3 1 1 5 8 10 11 7 2 4 2 3 3 8 9 8 6 4 4 5 1 3 3 4 0 11 6 8 9 9 6 8 9 9 9 9 10 9 7 6 5 6 8 7 7 8 8 8 6 5 5 6 8 8 6 5 6 5 4 3 3 4 6 4 5 5 5 5 6 7 7 8 8 9 10 11 10 11 13 12 12 12 12 11 11 11
3 1 3 6 5 5 6 3 1 2 4 1 3 2 3 6 8 10 9 7 9 2 2 1 2 8 5 2 8 5 1 2 2 5 10 9 6 5 6 6 6 5 6 6 7 8 8 6 5 5 7 8 8 9 8 6 4 4 3 3 3 5 6 5 5 5 5 5 6 7 8 8 8 10 10 11 10 12 13 12 11 12 13 13 12 12
4 4 1 4 5 6 5 2 3 2 0 3 4 4 6 5 3 1 5 2 1 7 8 6 9 6 5 1 2 4 3 5 7 6 5 7 7 6 7 6 5 5 6 8 9 8 6 6 7 7 6 7 7 5 5 5 5 4 3 2 4 5 5 5 5 5 5 6 7 8 8 9 9 10 11 11 10 11 12 13 12 12 13 12 12 13
1 6 6 6 8 7 6 4 5 4 6 3 1 1 3 9 6 5 5 4 8 5 6 4 8 6 4 3 3 3 4 6 7 5 3 5 7 8 6 4 5 5 7 7 8 7 8 7 4 6 8 7 6 5 4 4 4 3 3 3 3 5 5 5 4 4 5 6 7 8 9 10 9 10 11 11 11 12 12 12 13 13 12 13 15 15
3 2 3 7 6 9 10 6 3 1 1 5 10 8 7 6 9 9 3 4 10 4 7 11 13 9 6 4 3 6 5 8 9 6 6 6 8 9 6 6 6 5 6 7 7 8 6 6 7 6 6 6 5 4 4 4 3 3 3 4 4 5 5 4 4 4 5 6 7 8 9 10 10 10 11 11 11 10 12 13 13 13 14 14 15 15
0 3 10 13 14 13 9 8 5 2 6 5 6 7 6 6 9 12 10 13 5 7 10 6 4 6 11 4 6 6 7 6 7 7 6 7 8 8 6 5 5 4 5 5 6 7 8 8 6 7 7 6 6 3 3 3 3 3 3 5 4 4 3 3 3 4 5 6 8 8 10 9 9 10 11 10 11 11 13 14 14 14 14 14 14 15
1 3 5 4 10 12 13 17 14 5 3 5 8 11 15 12 9 13 13 12 11 11 16 5 10 9 7 7 9 9 9 10 9 8 9 7 4 3 3 3 3 4 5 5 7 6 6 7 7 7 6 5 3 4 4 3 3 3 3 4 5 3 4 4 3 4 5 7 8 9 9 9 9 10 10 10 12 13 14 14 14 13 13 14 16 14
2 4 5 1 6 8 9 10 9 9 6 6 7 7 7 9 13 15 14 11 14 11 9 7 9 12 7 7 10 11 8 6 4 2 1 1 5 5 2 0 1 3 4 5 6 5 5 7 7 7 5 5 5 4 4 4 4 4 4 5 4 4 4 2 4 5 6 7 8 8 9 10 10 10 10 11 13 14 13 13 13 13 14 14 15 16
0 7 1 1 3 8 8 8 9 12 11 13 13 10 9 9 10 13 8 0 2 4 2 3 6 11 6 6 8 7 4 1 2 4 7 6 4 4 2 1 2 3 4 5 5 7 6 7 7 7 6 7 5 5 5 6 5 3 3 4 4 4 4 2 4 5 6 8 8 8 9 10 10 10 11 12 13 13 14 14 13 14 15 15 15 15
4 4 0 1 4 8 4 4 4 4 4 7 11 13 14 14 11 5 5 5 5 8 4 1 5 10 5 4 4 5 4 4 8 7 5 5 4 3 3 3 2 2 4 5 6 5 6 7 8 8 8 6 4 5 6 6 5 3 5 4 4 4 2 2 4 6 7 7 8 9 10 10 11 11 11 13 14 14 14 15 15 16 16 15 15 14
3 4 5 2 8 9 7 2 3 5 7 8 11 16 18 16 8 5 5 5 6 4 5 6 7 5 6 2 3 5 4 4 4 5 4 2 2 4 4 2 2 3 4 4 5 6 6 7 7 7 6 5 6 7 9 6 4 5 5 4 3 1 2 3 5 6 6 7 8 10 10 10 10 11 13 13 13 13 13 15 15 15 15 16 15 14
3 6 8 3 7 9 11 3 1 3 7 10 4 3 8 11 11 13 12 8 7 3 5 4 7 4 1 2 6 5 5 6 7 6 3 6 6 4 3 3 3 4 4 5 5 6 7 6 7 7 7 7 8 9 4 5 5 4 2 2 1 1 3 3 5 4 6 7 8 10 10 10 12 13 13 13 13 13 13 14 16 15 14 14 14 14
7 6 7 3 3 10 4 3 4 8 10 4 4 4 4 9 13 18 19 14 13 12 9 7 7 6 10 9 9 6 5 2 2 4 3 4 5 4 2 1 3 3 5 5 7 7 6 6 7 6 5 7 7 5 3 3 3 2 2 2 1 1 2 3 3 5 6 7 9 9 9 11 12 13 13 13 13 13 13 14 15 15 13 12 13 13
9 8 2 1 3 2 1 4 4 7 4 2 7 7 3 2 5 3 8 10 10 10 12 12 15 10 7 7 3 3 5 2 1 2 4 4 4 4 3 2 3 3 4 6 5 8 8 7 7 8 8 5 4 4 4 4 3 3 3 2 1 2 2 2 3 5 6 7 8 9 9 11 12 13 13 13 13 13 14 14 14 15 13 13 13 12
10 3 3 5 2 6 6 4 9 4 10 10 10 5 4 4 4 8 9 11 12 11 12 12 9 5 4 3 4 2 2 1 1 2 4 3 4 3 2 3 3 5 5 7 6 8 9 7 6 7 4 3 5 4 4 3 3 3 2 1 1 1 1 2 4 5 5 7 8 8 9 11 12 14 14 13 13 13 14 14 15 14 12 13 13 13
7 8 5 2 4 6 7 6 2 3 8 11 7 5 6 9 7 6 6 8 3 4 8 9 8 8 5 5 4 2 2 3 2 6 5 5 3 3 3 4 3 4 5 6 7 7 7 6 4 4 5 5 3 3 3 4 4 3 2 2 1 1 2 2 4 5 6 7 8 8 9 10 12 14 14 13 13 14 14 14 13 14 12 13 14 14
5 4 1 7 5 1 2 3 3 4 8 7 5 5 6 3 2 2 1 10 4 7 9 10 9 8 10 9 4 4 4 3 6 6 4 2 1 3 1 3 3 4 5 6 6 8 10 6 4 4 3 3 4 3 4 4 4 3 3 3 1 0 1 3 4 5 5 7 8 7 8 9 12 13 13 13 12 13 13 12 14 14 13 13 13 14
5 4 0 2 5 4 3 2 6 2 7 3 5 6 8 1 2 2 2 8 7 9 9 6 9 10 7 6 8 7 8 4 5 4 3 4 2 1 2 3 5 5 6 6 6 5 7 4 2 3 4 6 6 4 5 4 4 4 4 3 1 1 3 4 4 5 5 6 7 6 7 8 12 12 13 13 13 12 13 13 12 12 14 13 12 12
2 3 5 8 7 8 7 5 1 5 4 2 6 10 6 3 5 2 8 6 5 6 6 7 9 10 8 8 5 6 6 6 3 3 1 0 0 2 3 3 6 5 7 7 8 6 4 4 5 7 8 4 3 4 4 5 4 4 4 2 1 3 5 4 4 5 5 6 6 5 6 8 11 13 13 12 12 11 13 13 12 12 13 12 11 10
3 0 4 1 3 5 5 6 7 4 4 2 8 7 5 1 5 9 4 3 9 4 4 3 9 6 9 10 6 5 7 6 2 0 1 2 3 2 3 4 4 5 5 5 7 5 4 3 4 5 4 2 4 5 5 5 4 4 3 2 4 6 4 3 4 5 5 5 5 5 5 8 10 11 11 13 13 12 12 12 12 11 12 11 12 12
4 1 4 2 3 1 1 1 0 5 1 6 9 8 0 2 3 2 6 7 2 4 3 4 5 7 7 6 5 4 1 2 3 1 0 1 2 3 4 4 4 5 6 6 7 4 3 4 5 6 5 2 4 5 5 6 5 4 3 4 7 5 3 3 3 4 4 4 5 5 4 6 10 11 11 13 13 13 12 12 12 12 11 12 12 12
1 1 2 2 3 3 1 3 4 1 5 3 2 2 3 1 3 3 4 8 8 2 2 3 2 6 7 6 7 4 4 3 1 0 0 1 3 3 4 4 4 5 5 5 5 6 4 5 4 5 3 3 4 5 6 7 6 4 4 8 5 2 3 2 3 3 3 3 4 5 4 5 8 10 11 13 14 14 13 13 13 11 10 11 11 11
3 3 2 3 1 2 3 3 6 3 4 4 3 5 7 6 6 6 4 6 8 5 2 2 5 4 6 4 5 5 3 3 1 2 1 1 2 3 4 4 4 5 6 6 8 6 3 6 6 6 4 4 5 5 6 5 6 4 4 4 3 4 3 1 2 3 3 3 4 5 4 4 6 8 11 12 12 14 13 13 13 12 10 9 11 11
2 3 1 2 5 3 5 10 9 8 6 6 5 5 6 4 6 6 6 5 5 5 2 3 4 4 4 4 5 1 1 3 2 1 2 3 4 5 4 4 5 5 5 5 6 6 5 4 5 5 5 3 6 6 6 6 5 6 5 2 2 3 3 1 1 4 4 3 4 4 5 5 6 7 9 11 11 11 12 11 10 11 11 9 8 10
2 2 1 3 1 1 5 0 4 6 6 7 6 5 5 5 6 4 4 6 5 2 3 5 4 4 8 6 5 5 4 4 1 1 1 2 3 4 4 4 5 5 5 7 7 5 5 3 5 7 6 5 5 6 6 6 6 6 3 2 1 3 3 1 0 2 3 3 4 4 4 6 5 6 8 10 9 9 11 11 10 10 11 11 9 8
4 2 1 5 3 3 6 5 7 6 6 5 6 6 6 5 4 2 3 4 3 5 4 3 1 2 2 4 4 7 4 1 1 1 2 3 4 4 5 5 6 6 7 6 7 5 5 6 7 5 5 6 5 6 6 6 7 6 4 3 2 2 2 1 0 1 3 4 4 4 3 5 6 7 6 8 9 9 11 12 11 10 10 11 12 10
3 3 4 2 3 5 6 6 4 5 7 7 5 6 7 5 6 6 8 8 5 8 7 2 3 6 5 5 4 6 3 1 2 1 2 4 4 4 5 6 6 6 7 8 7 4 6 6 6 5 5 5 4 6 6 6 5 4 5 4 3 3 2 1 0 1 2 3 5 6 3 3 5 5 5 6 8 7 7 10 12 11 10 12 10 10
2 7 3 1 4 6 6 3 3 3 6 4 5 6 9 9 6 4 5 8 6 6 5 6 2 2 3 4 7 5 4 1 0 0 2 3 3 4 5 6 6 6 7 6 6 6 6 6 5 4 6 3 5 6 6 5 4 4 4 3 3 3 3 2 1 0 2 3 4 5 6 4 4 5 4 5 6 8 7 9 13 14 12 12 16 22
8 8 5 6 4 6 6 8 6 5 5 8 7 3 7 6 4 6 6 6 4 1 6 6 1 3 3 2 1 5 4 2 0 0 2 3 4 4 4 4 6 7 7 6 5 6 5 4 4 5 6 3 5 6 6 5 4 4 3 4 4 4 3 2 1 0 2 3 3 5 6 5 4 4 4 4 5 6 7 7 7 13 18 19 21 22
Wind_Direction
79 91 167 190 214 214 207 177 163 155 128 109 90 105 179 184 285 289 282 253 331 71 250 209 239 262 278 260 266 266 9 303 270 272 265 260 223 199 213 216 218 218 222 218 216 216 213 216 227 232 235 239 253 185 209 216 226 209 172 126 200 192 77 30 360 354 0 344 341 332 342 320 308 306 292 281 271 265 263 273 277 282 262 234 237 234
69 69 259 222 209 193 167 135 109 77 45 110 104 100 319 167 255 242 251 350 334 97 301 36 303 263 249 269 267 293 331 290 272 265 268 263 232 201 201 210 214 222 314 179 207 228 224 227 234 239 241 236 224 225 208 220 220 238 4 177 300 20 56 59 44 337 336 309 294 288 298 304 306 308 311 303 263 263 266 280 286 277 276 259 239 235
26 215 243 219 148 102 86 72 59 103 103 46 117 122 30 271 233 282 289 330 330 61 263 10 334 280 280 273 286 284 269 255 257 215 232 232 252 208 212 215 209 187 214 204 223 212 212 221 233 231 239 241 227 242 215 227 130 73 272 277 350 35 25 6 356 8 323 308 308 296 285 309 304 275 270 272 276 282 286 271 269 276 278 275 264 245
26 294 275 188 150 100 48 52 82 70 62 100 77 78 216 255 7 319 314 355 354 65 299 360 325 287 291 295 275 273 217 253 258 265 264 260 243 206 203 194 185 200 188 201 199 201 206 215 240 248 243 235 204 272 231 189 162 260 248 243 102 46 39 360 339 334 318 300 297 292 275 265 243 284 295 288 290 299 297 277 240 260 274 280 264 269
208 219 104 123 130 122 115 61 93 83 112 331 155 145 199 201 236 157 267 322 245 6 64 26 342 314 322 344 330 291 246 288 312 326 345 263 236 240 261 208 196 184 193 202 202 213 208 224 228 221 229 209 200 208 211 192 181 200 220 211 151 104 52 358 336 330 319 317 312 304 301 275 268 270 287 308 306 292 283 295 289 257 263 273 281 268
293 255 138 107 84 82 108 134 210 135 60 328 234 192 191 178 192 292 340 41 23 339 344 55 345 303 293 291 240 298 355 303 321 7 348 344 297 161 186 201 207 243 231 192 190 196 200 209 229 247 242 232 211 198 217 207 211 201 208 172 128 87 68 2 318 318 322 317 314 320 324 323 325 303 250 288 301 320 322 309 286 275 250 264 273 277
206 345 130 158 140 105 89 170 233 137 162 71 268 192 202 142 116 100 93 63 359 283 294 102 125 268 318 297 290 320 330 308 326 8 311 323 257 215 211 200 198 206 219 260 292 238 213 229 233 245 238 229 208 201 214 227 205 214 183 141 112 99 104 228 257 277 306 304 305 299 296 291 291 293 292 205 257 285 296 304 303 284 263 252 254 269
121 13 61 79 98 123 117 250 239 154 120 234 244 135 127 124 159 177 143 163 231 203 300 38 118 202 309 293 254 309 290 300 324 314 303 284 237 233 229 228 219 216 217 207 210 213 221 220 215 225 228 220 194 200 222 222 212 191 170 125 98 95 325 237 251 266 250 273 281 290 288 287 283 275 284 301 284 249 278 308 313 314 297 264 255 256
138 155 140 114 103 129 191 214 172 153 138 222 192 149 155 160 171 148 120 119 117 70 291 327 187 80 258 267 310 312 327 338 312 284 274 286 254 238 239 230 232 229 228 223 214 215 218 222 223 232 273 144 163 203 210 216 206 188 164 100 88 60 257 264 261 258 243 257 270 274 289 290 283 284 287 297 295 294 290 286 296 303 305 300 266 254
276 175 202 164 147 202 228 217 161 168 175 266 126 82 75 79 73 110 115 133 3 69 268 260 168 199 279 278 335 335 269 293 273 290 284 254 252 238 227 233 232 247 267 257 240 242 245 242 261 359 84 186 213 220 226 231 200 153 117 62 44 298 268 265 266 261 263 250 264 273 277 282 290 295 295 297 298 297 295 289 281 283 298 305 303 272
230 305 158 124 189 207 179 176 182 171 133 125 112 69 38 40 33 26 59 91 63 353 258 227 214 163 295 266 234 185 192 196 239 300 285 270 271 256 246 238 234 237 244 243 237 238 244 248 245 203 246 237 242 231 222 225 203 140 111 73 320 269 269 268 271 269 263 254 248 257 263 270 279 290 295 297 293 295 295 293 295 289 283 291 295 298
334 94 131 239 155 87 105 85 31 181 113 124 93 128 79 344 17 33 345 39 79 278 265 258 180 159 164 285 288 235 276 247 186 231 262 281 257 234 231 232 233 231 233 245 252 254 252 262 243 202 232 225 229 230 228 223 206 220 189 117 293 280 266 278 279 280 275 269 264 258 263 267 269 280 287 289 290 291 292 293 295 295 288 282 282 289
296 203 237 314 233 146 133 102 3 60 75 72 83 74 145 272 33 342 12 330 187 213 256 184 177 21 244 227 233 288 265 256 221 223 232 246 256 248 248 240 238 240 247 244 242 251 255 240 240 225 232 214 219 217 214 220 219 221 202 167 255 276 271 271 272 270 274 277 268 257 257 262 269 268 270 278 280 283 287 291 292 293 290 289 286 276
283 289 279 262 25 208 131 161 188 2 220 124 155 149 99 235 81 265 264 219 298 289 240 184 270 281 252 285 231 229 247 239 224 225 236 229 231 232 244 265 244 231 235 237 240 244 243 241 240 231 230 218 219 215 212 217 220 222 219 191 232 267 284 274 269 263 271 268 266 258 253 257 263 271 277 276 278 278 280 285 286 286 284 284 277 281
327 327 280 154 253 187 173 187 184 176 165 197 138 148 184 153 167 229 201 216 225 222 258 263 78 233 90 251 195 205 251 288 267 239 232 238 248 281 293 291 289 275 246 230 238 236 238 242 237 240 231 227 222 215 213 213 220 210 224 221 241 265 268 250 254 260 262 268 268 267 260 257 257 265 270 274 275 278 278 274 274 276 279 280 281 276
223 220 252 214 226 161 188 205 125 100 93 165 154 72 87 220 133 209 198 175 214 251 333 270 213 193 200 242 261 255 263 252 346 265 92 269 253 331 321 294 280 271 273 255 248 254 253 246 246 244 237 226 220 215 213 218 211 209 225 225 235 245 265 252 256 252 256 264 265 267 265 260 265 267 271 276 278 281 283 285 282 281 279 276 275 272
24 270 268 313 78 182 200 135 201 141 191 231 108 194 217 142 122 86 50 61 66 77 254 175 319 297 304 331 308 9 110 201 8 38 22 293 296 358 248 254 257 256 265 256 242 245 252 259 244 236 233 229 217 210 214 214 204 207 216 225 244 251 257 250 250 257 260 265 269 269 265 268 269 265 268 272 275 275 275 274 274 274 273 272 271 272
181 245 290 109 253 256 185 164 119 329 145 102 169 231 165 126 119 126 201 350 50 192 265 103 216 282 23 286 298 338 304 229 233 208 287 290 298 280 250 247 243 237 238 251 256 255 255 256 253 246 241 231 219 217 218 220 209 206 210 221 237 254 251 238 233 253 251 261 269 271 270 266 263 267 269 270 276 279 281 276 276 277 278 274 275 273
156 275 276 230 213 303 42 100 27 31 69 151 199 174 119 215 227 310 89 195 207 240 268 304 236 257 184 240 331 266 212 231 245 227 273 244 239 240 249 252 255 253 261 255 250 250 250 244 242 240 238 233 228 226 225 224 213 210 221 227 224 252 255 258 252 252 257 250 265 269 275 277 278 273 274 275 274 278 280 281 280 277 277 278 275 272
118 233 291 318 152 242 53 109 198 246 349 48 89 140 168 107 161 133 194 192 128 251 62 289 87 240 197 212 195 211 212 221 225 224 244 225 220 223 227 239 244 249 244 247 247 246 247 247 242 239 235 229 221 221 222 223 222 228 226 231 245 260 266 274 270 266 272 265 261 271 273 276 276 285 286 287 287 284 284 284 282 279 277 276 277 274
261 154 254 275 297 89 207 186 205 176 176 151 142 194 221 150 236 127 19 138 164 176 188 225 296 266 248 213 183 209 209 209 195 208 223 227 230 224 220 222 231 240 250 251 248 249 248 248 248 244 234 234 229 218 218 218 220 228 225 237 241 260 277 275 268 266 265 269 269 271 279 288 290 286 285 287 284 285 284 284 285 280 276 280 275 272
247 214 222 264 267 219 234 235 211 195 190 180 182 197 187 135 151 183 251 41 107 126 206 151 249 263 262 182 195 199 221 197 204 192 214 227 227 225 227 229 225 240 244 245 252 252 257 257 256 257 248 232 218 224 222 218 212 233 233 230 245 259 262 264 272 254 261 261 262 269 281 287 289 289 289 288 288 286 286 284 285 284 283 276 276 272
178 173 164 229 201 217 230 236 206 201 190 207 170 225 190 180 144 143 200 247 60 258 115 171 69 269 234 200 199 211 204 198 198 191 214 225 225 228 234 235 243 232 252 262 265 263 259 263 274 275 250 237 229 234 227 214 212 224 231 234 244 251 264 246 262 266 261 265 269 272 275 282 287 292 291 289 288 289 290 288 285 286 283 280 278 274
65 261 294 272 291 310 308 289 298 172 139 104 231 143 127 200 188 189 187 186 169 167 119 314 239 261 282 201 211 223 255 252 256 199 216 228 247 254 240 250 253 257 256 263 266 266 263 268 269 260 245 234 229 225 221 213 208 218 226 231 243 251 262 268 262 264 268 267 267 271 278 281 286 289 291 289 288 284 286 284 283 285 282 279 277 276
348 281 105 322 343 336 341 0 316 333 331 185 190 207 192 198 163 118 95 91 137 214 179 141 238 266 272 316 264 255 230 256 253 238 202 242 256 248 247 245 253 259 280 281 275 269 269 257 250 249 252 246 241 233 220 208 208 210 229 220 237 253 254 260 262 266 269 268 272 279 281 282 286 288 287 286 286 285 287 288 288 285 284 283 278 276
252 280 296 273 259 266 261 229 243 272 258 255 293 255 204 182 163 158 215 197 209 254 161 186 249 245 277 334 326 257 233 263 261 246 218 223 245 257 254 251 254 248 253 274 286 288 270 267 260 251 244 242 238 230 218 208 202 207 220 235 226 245 260 259 258 261 269 271 275 282 282 283 285 286 285 284 286 285 285 283 281 282 278 278 278 276
192 188 194 232 231 249 248 254 264 97 288 237 234 207 207 205 197 195 141 118 209 196 176 225 228 258 264 277 277 256 240 231 249 253 231 246 247 246 255 261 257 260 271 278 282 282 293 278 260 258 259 247 245 226 220 203 200 201 214 245 233 232 241 256 263 270 270 275 276 280 281 285 286 287 286 285 284 282 284 285 282 279 278 277 273 272
34 263 235 238 238 246 247 253 265 167 260 276 300 283 256 201 192 189 170 217 164 102 235 232 156 227 243 217 249 259 260 260 254 251 247 249 247 240 240 236 261 283 277 274 271 268 263 268 269 255 250 244 238 227 220 197 197 199 202 234 239 238 239 253 260 270 272 274 275 276 282 286 288 287 284 282 283 282 280 278 276 272 273 273 267 267
140 248 297 291 275 268 273 275 280 300 228 251 265 261 253 232 195 196 213 217 151 190 230 215 181 214 237 191 221 228 229 232 239 228 226 232 243 221 220 242 302 287 292 293 272 270 267 265 264 264 256 249 242 229 214 201 212 205 220 233 243 245 245 241 251 271 273 273 275 280 286 288 288 284 282 285 287 282 278 276 273 271 269 267 269 267
90 246 254 245 294 300 289 285 298 287 286 284 274 282 296 256 212 208 222 210 184 206 213 170 186 221 214 202 208 229 231 230 248 267 1 191 215 211 159 132 257 265 268 272 276 276 268 265 272 272 273 257 232 225 206 212 215 206 209 229 229 237 252 242 264 268 273 274 278 283 285 287 287 285 285 287 285 282 280 279 278 275 271 266 263 264
120 280 76 325 314 288 285 283 266 266 270 272 274 275 283 283 264 242 240 81 153 280 285 175 204 258 247 200 232 253 285 213 308 264 229 225 208 166 145 208 244 261 272 279 279 275 271 270 268 272 264 253 229 214 206 213 218 190 219 234 234 239 251 229 264 267 271 278 283 286 288 289 288 285 286 289 286 284 284 284 283 279 275 270 264 259
154 262 234 164 279 282 262 238 299 340 311 278 277 269 260 258 263 255 237 220 164 213 208 194 264 256 280 240 254 269 266 223 234 232 222 220 201 147 178 207 240 256 269 274 280 284 281 271 266 256 253 250 222 210 212 222 207 183 231 227 227 238 248 256 262 270 278 282 290 292 294 292 289 289 292 292 289 288 288 287 285 282 277 274 268 262
221 265 277 298 291 269 268 145 291 321 306 296 262 246 245 242 226 261 266 269 235 176 182 204 238 235 240 189 182 248 200 240 242 221 210 215 203 179 182 197 235 252 257 271 280 278 267 263 260 255 253 233 214 211 221 203 166 208 222 219 226 217 265 267 269 280 288 293 293 296 294 293 296 296 295 292 290 289 287 285 283 282 280 275 272 267
207 229 255 180 257 276 269 238 58 309 269 256 251 205 196 230 227 235 240 219 232 167 222 198 254 293 115 181 196 224 193 211 201 217 189 169 170 188 228 232 236 249 270 274 265 267 276 273 261 249 233 224 214 216 202 168 189 212 192 196 186 216 257 266 286 295 296 297 298 301 301 301 300 297 295 293 291 289 286 285 285 283 280 279 275 267
230 216 245 197 243 264 284 88 298 235 252 254 277 282 243 235 223 222 234 221 226 226 230 268 271 238 221 204 205 214 197 228 220 191 202 196 149 150 171 220 252 259 270 280 292 289 274 264 266 257 244 226 220 212 162 184 207 179 147 166 200 223 250 283 304 303 298 302 303 302 301 304 304 300 298 295 292 290 288 288 287 286 285 280 276 274
241 230 224 240 214 348 26 199 235 250 256 294 277 266 193 168 234 250 282 267 249 231 213 226 233 228 215 210 238 214 174 228 257 226 204 197 177 158 178 222 244 242 259 264 264 281 288 282 256 239 236 218 204 187 176 189 165 168 185 140 184 256 272 303 311 300 302 305 302 301 305 310 308 304 302 299 296 294 293 292 290 290 290 283 277 270
231 215 164 267 163 235 240 225 239 330 309 282 277 240 160 230 182 174 212 249 222 212 198 211 220 216 188 201 175 157 205 108 77 280 251 212 208 201 191 225 226 251 252 272 263 270 274 273 258 241 219 203 186 178 196 160 149 152 141 150 241 235 303 349 317 304 304 303 298 302 314 317 314 312 308 304 302 301 301 301 299 293 286 281 278 274
193 192 214 194 261 187 258 272 301 262 261 256 241 275 230 216 201 192 179 267 282 226 192 173 179 171 149 140 138 159 123 94 273 271 260 229 205 225 250 239 259 253 257 266 284 278 274 272 263 241 208 210 190 189 150 153 152 150 167 206 235 320 342 339 303 296 303 298 296 306 321 323 320 315 311 309 307 307 307 305 297 291 286 283 284 277
353 356 312 194 232 139 214 231 224 235 247 247 273 262 300 302 191 87 152 254 264 194 194 176 170 164 158 148 164 129 103 170 242 250 269 232 233 215 267 292 262 266 270 270 272 290 293 279 230 217 202 181 222 196 157 148 145 151 199 216 214 112 319 290 284 293 296 297 296 306 327 326 323 319 313 312 310 310 309 300 298 298 292 284 276 271
300 250 213 249 257 222 184 207 247 210 260 313 329 309 300 321 155 112 196 266 253 199 181 171 155 163 174 153 140 129 135 179 238 251 227 213 214 224 191 256 293 291 292 288 289 260 266 270 180 206 205 211 216 150 152 149 146 179 204 220 157 272 269 262 265 272 280 287 297 308 329 330 326 322 317 315 313 312 307 305 302 298 298 295 284 271
302 297 151 225 211 228 201 245 320 294 271 344 324 313 286 247 83 123 219 239 321 314 199 172 159 160 148 144 149 144 226 182 193 198 164 184 16 304 273 246 245 254 270 285 287 305 271 231 209 221 217 204 150 140 142 145 151 200 214 190 182 245 243 248 262 273 277 289 297 323 337 334 329 326 322 318 314 308 309 312 311 309 314 312 314 304
281 217 287 11 257 222 212 189 237 250 239 307 311 304 274 110 193 208 233 266 290 293 293 235 148 156 148 158 170 187 212 227 240 212 159 172 194 234 259 269 285 286 263 252 269 278 258 242 239 254 269 173 147 141 146 150 181 207 202 196 228 238 239 249 261 272 293 301 308 320 340 334 330 331 325 321 319 324 323 322 324 326 331 338 351 353
212 159 242 213 236 308 92 203 305 259 278 25 329 341 26 154 235 238 298 305 311 27 240 243 163 162 154 175 202 204 216 169 188 234 241 241 216 246 251 268 271 276 290 307 314 280 217 241 239 239 235 164 158 147 155 162 193 206 196 223 241 234 228 245 267 290 301 304 312 320 341 333 331 336 333 328 328 332 336 335 333 338 342 351 358 5
252 224 243 258 145 252 183 206 224 202 286 311 66 231 249 204 267 289 297 312 313 34 254 261 211 180 178 171 183 227 237 193 290 195 278 257 256 268 281 276 274 283 287 275 255 274 231 233 239 244 224 162 156 158 163 173 198 196 208 243 242 199 223 251 295 307 329 315 314 312 334 323 328 336 340 336 336 341 348 347 342 341 351 4 9 8
178 216 180 243 213 180 229 248 265 255 253 260 205 257 269 297 303 279 251 250 273 283 142 317 248 193 189 171 166 172 177 215 192 175 171 246 255 262 269 272 272 279 278 281 291 291 251 231 239 243 230 168 166 166 178 185 187 195 218 251 200 201 192 244 322 327 337 319 312 311 313 313 320 336 343 343 341 346 349 351 352 353 348 0 21 12
230 219 237 180 254 270 250 237 276 304 279 283 271 252 282 257 216 248 260 260 240 258 277 220 259 234 175 178 133 226 195 182 171 246 262 278 275 275 270 280 285 275 275 290 295 289 270 253 250 245 242 180 171 172 183 189 179 191 218 226 197 172 147 128 337 324 320 313 299 306 317 316 324 329 343 343 338 342 348 348 354 1 354 350 17 29
247 152 230 227 255 44 286 283 226 254 262 261 268 287 283 264 250 243 263 254 281 269 257 234 246 217 186 176 173 160 169 178 161 303 284 285 281 275 283 286 286 281 286 293 280 289 298 265 252 241 236 219 182 180 186 189 202 211 192 209 179 148 126 107 68 303 318 318 302 315 330 322 330 327 341 344 341 346 353 0 2 4 6 3 359 23
310 106 325 244 240 190 247 232 238 250 258 266 284 295 302 308 302 276 322 324 332 309 279 253 104 231 173 136 157 131 162 175 135 293 312 289 287 294 302 301 296 303 290 265 274 275 268 255 246 246 230 236 177 177 186 198 205 208 209 217 174 141 117 103 157 280 304 307 310 319 331 328 330 336 337 342 340 351 2 7 6 6 10 4 7 5
203 121 230 210 237 271 285 296 304 285 279 271 276 276 272 281 298 354 2 346 5 2 347 346 260 221 154 149 139 116 118 187 221 234 275 304 317 325 312 294 289 284 283 295 289 261 243 250 251 244 236 236 150 171 186 205 204 195 198 194 160 144 134 133 112 311 327 321 328 319 330 336 330 336 335 339 342 351 4 8 7 8 16 19 13 16
127 234 229 345 283 270 256 262 317 334 297 310 319 329 308 302 331 26 334 331 356 10 355 309 294 42 104 129 135 117 117 132 256 183 290 290 298 296 300 303 301 299 296 283 278 274 262 254 252 251 242 224 142 164 185 201 200 192 185 152 149 150 158 147 123 66 313 323 321 323 327 354 347 338 345 343 342 344 355 16 25 24 27 17 19 27
212 222 153 201 185 233 227 233 201 207 255 249 243 287 299 298 336 354 324 298 298 328 285 285 322 56 83 93 84 115 122 114 164 202 290 327 315 278 270 284 303 310 306 306 307 305 284 271 243 231 241 202 144 163 177 186 186 177 167 150 154 160 157 142 144 197 302 329 323 323 322 332 357 342 346 353 351 345 353 358 15 28 28 32 32 32